Weather History for Fort Drum, NY

Change the Weather History Date:

Saturday, February 2, 2013

  Actual Average Record
Temperature  
Mean Temperature 14 °F -  
Max Temperature 18 °F 26 °F 48 °F (2006)
Min Temperature 9 °F 9 °F -2 °F (2000)
Degree Days  
Heating Degree Days 52    
Moisture  
Dew Point 10 °F    
Average Humidity 84    
Maximum Humidity 93    
Minimum Humidity 65    
Precipitation  
Precipitation 0.00 in - - ()
Snow  
Snow 0.00 in - - ()
Snow Depth 3.00 in    
Sea Level Pressure  
Sea Level Pressure 30.08 in    
Wind  
Wind Speed 8 mph (South)    
Max Wind Speed 18 mph    
Max Gust Speed 24 mph    
Visibility 4 miles    
Events Fog , Snow    
Averages and records for this station are not official NWS values.
T = Trace of Precipitation, MM = Missing Value Source: NWS Daily Summary

Daily Weather History Graph

Daily Weather History Graph

Search for Another Location

Airport:

Trip Planner

Search our weather history database for the weather conditions in past years. The results will help you decide how hot, cold, wet, or windy it might be!

Date:

Astronomy

Feb. 02, 2013 Rise Set
Actual Time 7:18 AM EST 5:14 PM EST
Civil Twilight 6:48 AM EST 5:45 PM EST
Nautical Twilight 6:13 AM EST 6:19 PM EST
Astronomical Twilight 5:40 AM EST 6:53 PM EST
Moon No Moon Rise 10:11 AM EST (2/2)
Length of Visible Light 10h 57m
Length of Day
9h 55m
Waning Gibbous, 60% of the Moon is Illuminated
Feb 2
Waning Gibbous
Feb 3
Last Quarter
Feb 10
New
Feb 17
First Quarter
Feb 25
Full

Hourly Weather History & Observations

Time (EST) Temp. Windchill Dew Point Humidity Pressure Visibility Wind Dir Wind Speed Gust Speed Precip Events Conditions
12:55 AM 9.7 °F 1.4 °F 0.9 °F 68% 30.19 in 10.0 mi West 4.6 mph - N/A   Overcast
1:55 AM 10.4 °F - 0.9 °F 65% 30.18 in 10.0 mi Calm Calm - N/A   Overcast
2:55 AM 10.6 °F -0.2 °F 1.0 °F 65% 30.17 in 10.0 mi SSE 6.9 mph - N/A   Overcast
3:10 AM 10.4 °F -0.4 °F 1.4 °F 67% 30.17 in 10.0 mi SSE 6.9 mph - N/A   Overcast
3:45 AM 10.4 °F -0.4 °F 1.4 °F 67% 30.16 in 10.0 mi South 6.9 mph - N/A   Overcast
3:55 AM 10.4 °F -0.4 °F 1.8 °F 68% 30.15 in 10.0 mi SSE 6.9 mph - N/A   Overcast
4:04 AM 10.4 °F -1.5 °F 1.4 °F 67% 30.15 in 10.0 mi SSE 8.1 mph - N/A   Overcast
4:10 AM 10.4 °F -1.5 °F 1.4 °F 67% 30.15 in 10.0 mi SSE 8.1 mph - N/A   Overcast
4:31 AM 10.4 °F -1.5 °F 3.2 °F 73% 30.15 in 10.0 mi South 8.1 mph - N/A   Overcast
4:39 AM 10.4 °F -1.5 °F 3.2 °F 73% 30.15 in 10.0 mi SSE 8.1 mph - N/A   Overcast
4:42 AM 10.4 °F -0.4 °F 3.2 °F 73% 30.15 in 10.0 mi SSE 6.9 mph - N/A Snow Light Snow
4:55 AM 10.8 °F 0.0 °F 5.5 °F 79% 30.15 in 9.0 mi SSE 6.9 mph - 0.00 in Snow Light Snow
5:24 AM 10.4 °F 0.8 °F 6.8 °F 85% 30.14 in 10.0 mi SE 5.8 mph - N/A   Overcast
5:26 AM 10.4 °F 0.8 °F 6.8 °F 85% 30.14 in 10.0 mi SSE 5.8 mph - N/A   Overcast
5:47 AM 12.2 °F 1.7 °F 6.8 °F 79% 30.13 in 10.0 mi SE 6.9 mph - N/A   Mostly Cloudy
5:54 AM 12.2 °F 0.7 °F 6.8 °F 79% 30.13 in 10.0 mi SE 8.1 mph - N/A   Overcast
5:55 AM 11.5 °F 0.9 °F 6.8 °F 81% 30.13 in 10.0 mi SE 6.9 mph - 0.00 in   Overcast
6:01 AM 12.2 °F 0.7 °F 6.8 °F 79% 30.13 in 10.0 mi SSE 8.1 mph - N/A   Overcast
6:10 AM 12.2 °F 0.7 °F 6.8 °F 79% 30.12 in 10.0 mi SSE 8.1 mph - N/A   Overcast
6:11 AM 12.2 °F 0.7 °F 6.8 °F 79% 30.12 in 10.0 mi SSE 8.1 mph - N/A   Overcast
6:15 AM 12.2 °F 0.7 °F 6.8 °F 79% 30.12 in 10.0 mi SSE 8.1 mph - N/A   Overcast
6:19 AM 12.2 °F 0.7 °F 6.8 °F 79% 30.12 in 10.0 mi SE 8.1 mph - N/A   Mostly Cloudy
6:27 AM 12.2 °F 0.7 °F 6.8 °F 79% 30.11 in 10.0 mi SE 8.1 mph - N/A Snow Light Snow
6:32 AM 12.2 °F 0.7 °F 6.8 °F 79% 30.12 in 7.0 mi SE 8.1 mph - N/A Snow Light Snow
6:34 AM 12.2 °F 0.7 °F 6.8 °F 79% 30.12 in 6.0 mi SSE 8.1 mph - N/A Snow Light Snow
6:41 AM 12.2 °F 0.7 °F 8.6 °F 85% 30.12 in 5.0 mi SSE 8.1 mph - N/A Snow Light Snow
6:45 AM 12.2 °F -0.2 °F 8.6 °F 85% 30.12 in 4.0 mi SSE 9.2 mph - N/A Snow Light Snow
6:49 AM 12.2 °F -0.2 °F 8.6 °F 85% 30.12 in 3.0 mi SSE 9.2 mph - N/A Snow Light Snow
6:51 AM 12.2 °F 0.7 °F 8.6 °F 85% 30.11 in 2.5 mi SE 8.1 mph - N/A Snow Light Snow
6:58 AM 12.4 °F 0.9 °F 8.6 °F 85% 30.11 in 2.5 mi SSE 8.1 mph - 0.00 in Snow Light Snow
7:00 AM 12.2 °F 1.7 °F 8.6 °F 85% 30.11 in 2.0 mi SE 6.9 mph - N/A Snow Light Snow
7:02 AM 12.2 °F 0.7 °F 8.6 °F 85% 30.11 in 2.0 mi SE 8.1 mph - N/A Snow Light Snow
7:08 AM 12.2 °F 1.7 °F 8.6 °F 85% 30.11 in 2.0 mi ESE 6.9 mph - N/A Snow Light Snow
7:12 AM 12.2 °F 0.7 °F 8.6 °F 85% 30.11 in 2.5 mi East 8.1 mph - N/A Snow Light Snow
7:14 AM 12.2 °F 1.7 °F 8.6 °F 85% 30.11 in 2.0 mi ESE 6.9 mph - N/A Snow Light Snow
7:15 AM 12.2 °F 1.7 °F 8.6 °F 85% 30.11 in 1.8 mi ESE 6.9 mph - N/A Snow Light Snow
7:18 AM 12.2 °F 1.7 °F 8.6 °F 85% 30.11 in 1.2 mi ESE 6.9 mph - N/A Snow Light Snow
7:20 AM 12.2 °F 1.7 °F 8.6 °F 85% 30.11 in 1.0 mi ESE 6.9 mph - N/A Snow Light Snow
7:25 AM 12.2 °F 1.7 °F 8.6 °F 85% 30.11 in 0.8 mi ESE 6.9 mph - N/A Snow Light Snow
7:27 AM 12.2 °F 1.7 °F 8.6 °F 85% 30.11 in 0.8 mi ESE 6.9 mph - N/A Snow Light Snow
7:31 AM 12.2 °F 2.9 °F 8.6 °F 85% 30.11 in 0.8 mi ESE 5.8 mph - N/A Snow Light Snow
7:34 AM 12.2 °F 4.3 °F 8.6 °F 85% 30.11 in 0.8 mi ESE 4.6 mph - N/A Snow Light Snow
7:36 AM 12.2 °F 4.3 °F 8.6 °F 85% 30.11 in 1.0 mi ESE 4.6 mph - N/A Snow Light Snow
7:39 AM 10.4 °F 2.2 °F 8.6 °F 92% 30.11 in 1.0 mi ESE 4.6 mph - N/A Snow Light Snow
7:42 AM 10.4 °F 2.2 °F 8.6 °F 92% 30.11 in 1.0 mi ESE 4.6 mph - N/A Snow Light Snow
7:46 AM 10.4 °F 0.8 °F 8.6 °F 92% 30.11 in 0.8 mi ESE 5.8 mph - N/A Snow Light Snow
7:48 AM 10.4 °F -0.4 °F 8.6 °F 92% 30.11 in 0.5 mi ESE 6.9 mph - N/A Fog , Snow Light Freezing Fog
7:49 AM 10.4 °F -0.4 °F 8.6 °F 92% 30.11 in 0.5 mi ESE 6.9 mph - N/A Fog , Snow Light Freezing Fog
7:50 AM 10.4 °F -0.4 °F 8.6 °F 92% 30.11 in 0.5 mi ESE 6.9 mph - N/A Fog , Snow Light Freezing Fog
7:52 AM 10.4 °F -1.5 °F 8.6 °F 92% 30.11 in 0.2 mi ESE 8.1 mph - N/A Fog , Snow Light Freezing Fog
7:55 AM 11.1 °F 0.4 °F 8.6 °F 90% 30.11 in 0.2 mi ESE 6.9 mph - 0.00 in Fog , Snow Light Freezing Fog
7:56 AM 10.4 °F -0.4 °F 8.6 °F 92% 30.11 in 0.2 mi ESE 6.9 mph - N/A Fog , Snow Light Freezing Fog
7:57 AM 10.4 °F -1.5 °F 8.6 °F 92% 30.10 in 0.2 mi ESE 8.1 mph - N/A Fog , Snow Light Freezing Fog
7:58 AM 10.4 °F -0.4 °F 8.6 °F 92% 30.11 in 0.2 mi SE 6.9 mph - N/A Fog , Snow Light Freezing Fog
8:01 AM 10.4 °F -0.4 °F 8.6 °F 92% 30.10 in 0.2 mi SE 6.9 mph - N/A Fog , Snow Light Freezing Fog
8:02 AM 10.4 °F 0.8 °F 8.6 °F 92% 30.10 in 0.2 mi SE 5.8 mph - N/A Fog , Snow Light Freezing Fog
8:04 AM 12.2 °F 4.3 °F 8.6 °F 85% 30.10 in 0.2 mi SSE 4.6 mph - N/A Fog , Snow Light Freezing Fog
8:07 AM 12.2 °F 1.7 °F 8.6 °F 85% 30.10 in 0.5 mi South 6.9 mph - N/A Fog , Snow Light Freezing Fog
8:11 AM 12.2 °F 0.7 °F 10.4 °F 92% 30.10 in 0.8 mi SSW 8.1 mph - N/A Snow Light Snow
8:13 AM 12.2 °F 0.7 °F 10.4 °F 92% 30.10 in 1.0 mi SSW 8.1 mph - N/A Snow Light Snow
8:14 AM 12.2 °F -0.2 °F 10.4 °F 92% 30.10 in 1.2 mi SSW 9.2 mph - N/A Snow Light Snow
8:16 AM 14.0 °F 3.9 °F 10.4 °F 86% 30.10 in 1.5 mi SSW 6.9 mph - N/A Snow Light Snow
8:19 AM 14.0 °F 2.0 °F 12.2 °F 93% 30.10 in 1.5 mi SW 9.2 mph - N/A Snow Light Snow
8:22 AM 14.0 °F 2.9 °F 12.2 °F 93% 30.10 in 2.0 mi SW 8.1 mph - N/A Snow Light Snow
8:25 AM 14.0 °F -0.2 °F 12.2 °F 93% 30.09 in 1.8 mi SW 12.7 mph 18.4 mph N/A Snow Light Snow
8:28 AM 14.0 °F 2.0 °F 12.2 °F 93% 30.10 in 1.5 mi SW 9.2 mph 18.4 mph N/A Snow Light Snow
8:29 AM 14.0 °F 1.2 °F 12.2 °F 93% 30.10 in 1.2 mi SW 10.4 mph 18.4 mph N/A Snow Light Snow
8:32 AM 14.0 °F -0.2 °F 12.2 °F 93% 30.10 in 1.0 mi SW 12.7 mph 18.4 mph N/A Snow Light Snow
8:34 AM 14.0 °F 0.5 °F 12.2 °F 93% 30.09 in 1.0 mi SW 11.5 mph 18.4 mph N/A Snow Light Snow
8:45 AM 14.0 °F -0.2 °F 12.2 °F 93% 30.09 in 1.0 mi SW 12.7 mph 21.9 mph N/A Snow Light Snow
8:49 AM 14.0 °F -1.4 °F 12.2 °F 93% 30.09 in 1.2 mi SSW 15.0 mph 23.0 mph N/A Snow Light Snow
8:52 AM 14.0 °F -0.8 °F 12.2 °F 93% 30.09 in 1.5 mi SSW 13.8 mph 23.0 mph N/A Snow Light Snow
8:54 AM 15.8 °F 0.3 °F 12.2 °F 86% 30.09 in 1.8 mi SSW 16.1 mph 23.0 mph N/A Snow Light Snow
8:55 AM 14.9 °F -0.8 °F 11.3 °F 86% 30.09 in 1.8 mi SSW 16.1 mph 23.0 mph 0.00 in Snow Light Snow
8:56 AM 15.8 °F 0.9 °F 10.4 °F 79% 30.09 in 2.0 mi SSW 15.0 mph 23.0 mph N/A Snow Light Snow
8:58 AM 15.8 °F 0.9 °F 10.4 °F 79% 30.09 in 2.5 mi SSW 15.0 mph 23.0 mph N/A Snow Light Snow
9:01 AM 15.8 °F 3.4 °F 10.4 °F 79% 30.09 in 3.0 mi SW 10.4 mph 23.0 mph N/A Snow Light Snow
9:06 AM 15.8 °F 0.3 °F 10.4 °F 79% 30.09 in 2.5 mi SSW 16.1 mph 23.0 mph N/A Snow Light Snow
9:11 AM 15.8 °F 0.3 °F 10.4 °F 79% 30.09 in 2.0 mi SSW 16.1 mph 23.0 mph N/A Snow Light Snow
9:22 AM 15.8 °F 0.3 °F 10.4 °F 79% 30.09 in 2.5 mi SSW 16.1 mph - N/A Snow Light Snow
9:23 AM 15.8 °F 0.3 °F 10.4 °F 79% 30.09 in 2.5 mi SSW 16.1 mph - N/A Snow Light Snow
9:26 AM 15.8 °F 0.3 °F 10.4 °F 79% 30.09 in 3.0 mi SSW 16.1 mph - N/A Snow Light Snow
9:45 AM 15.8 °F 0.3 °F 10.4 °F 79% 30.08 in 2.5 mi SSW 16.1 mph 20.7 mph N/A Snow Light Snow
9:51 AM 15.8 °F -0.2 °F 10.4 °F 79% 30.08 in 2.0 mi SSW 17.3 mph - N/A Snow Light Snow
9:55 AM 15.1 °F 1.1 °F 10.8 °F 83% 30.08 in 2.0 mi SSW 12.7 mph 19.6 mph 0.00 in Snow Light Snow
9:58 AM 15.8 °F 2.1 °F 10.4 °F 79% 30.08 in 1.8 mi SSW 12.7 mph 21.9 mph N/A Snow Light Snow
10:05 AM 15.8 °F 2.7 °F 10.4 °F 79% 30.09 in 1.2 mi SSW 11.5 mph 21.9 mph N/A Snow Light Snow
10:09 AM 15.8 °F 3.4 °F 10.4 °F 79% 30.09 in 1.0 mi SSW 10.4 mph - N/A Snow Light Snow
10:14 AM 15.8 °F 2.1 °F 10.4 °F 79% 30.09 in 1.0 mi SW 12.7 mph 17.3 mph N/A Snow Light Snow
10:17 AM 15.8 °F 3.4 °F 12.2 °F 86% 30.09 in 0.8 mi SW 10.4 mph 17.3 mph N/A Snow Light Snow
10:23 AM 15.8 °F 4.2 °F 12.2 °F 86% 30.09 in 0.8 mi SW 9.2 mph - N/A Snow Light Snow
10:24 AM 15.8 °F 3.4 °F 12.2 °F 86% 30.09 in 0.5 mi SW 10.4 mph - N/A Fog , Snow Light Freezing Fog
10:26 AM 15.8 °F 2.7 °F 12.2 °F 86% 30.09 in 0.5 mi SW 11.5 mph - N/A Fog , Snow Light Freezing Fog
10:28 AM 15.8 °F 2.1 °F 12.2 °F 86% 30.09 in 0.5 mi WSW 12.7 mph - N/A Fog , Snow Light Freezing Fog
10:30 AM 15.8 °F 3.4 °F 12.2 °F 86% 30.09 in 0.5 mi SW 10.4 mph - N/A Fog , Snow Light Freezing Fog
10:34 AM 15.8 °F 4.2 °F 12.2 °F 86% 30.09 in 0.5 mi SW 9.2 mph - N/A Fog , Snow Light Freezing Fog
10:38 AM 15.8 °F 2.7 °F 12.2 °F 86% 30.09 in 0.5 mi SW 11.5 mph - N/A Fog , Snow Light Freezing Fog
10:55 AM 14.9 °F 3.1 °F 11.5 °F 86% 30.09 in 0.8 mi SW 9.2 mph - 0.00 in Snow Light Snow
10:57 AM 15.8 °F 2.7 °F 12.2 °F 86% 30.09 in 0.5 mi SW 11.5 mph - N/A Fog , Snow Light Freezing Fog
10:58 AM 15.8 °F 3.4 °F 12.2 °F 86% 30.09 in 0.8 mi SW 10.4 mph - N/A Snow Light Snow
11:00 AM 15.8 °F 3.4 °F 12.2 °F 86% 30.09 in 0.5 mi SW 10.4 mph - N/A Fog , Snow Light Freezing Fog
11:29 AM 15.8 °F 4.2 °F 12.2 °F 86% 30.08 in 0.5 mi WSW 9.2 mph - N/A Fog , Snow Light Freezing Fog
11:35 AM 15.8 °F 4.2 °F 12.2 °F 86% 30.08 in 0.5 mi SW 9.2 mph 17.3 mph N/A Fog , Snow Light Freezing Fog
11:37 AM 15.8 °F 5.1 °F 12.2 °F 86% 30.08 in 0.5 mi SW 8.1 mph 17.3 mph N/A Fog , Snow Light Freezing Fog
11:52 AM 15.8 °F 6.1 °F 12.2 °F 86% 30.07 in 0.5 mi WSW 6.9 mph - N/A Fog , Snow Light Freezing Fog
11:53 AM 15.8 °F 7.2 °F 12.2 °F 86% 30.07 in 0.8 mi WSW 5.8 mph - N/A Snow Light Snow
11:55 AM 15.6 °F 8.3 °F 12.6 °F 88% 30.07 in 0.8 mi WSW 4.6 mph - 0.00 in Snow Light Snow
12:00 PM 15.8 °F 7.2 °F 12.2 °F 86% 30.07 in 0.8 mi WSW 5.8 mph - N/A Snow Light Snow
12:02 PM 15.8 °F 8.6 °F 12.2 °F 86% 30.06 in 0.8 mi Variable 4.6 mph - N/A Snow Light Snow
12:03 PM 15.8 °F 7.2 °F 12.2 °F 86% 30.06 in 1.0 mi WSW 5.8 mph - N/A Snow Light Snow
12:07 PM 15.8 °F 7.2 °F 12.2 °F 86% 30.06 in 1.0 mi WSW 5.8 mph - N/A Snow Light Snow
12:12 PM 15.8 °F 7.2 °F 12.2 °F 86% 30.06 in 1.2 mi WSW 5.8 mph - N/A Snow Light Snow
12:13 PM 15.8 °F 6.1 °F 12.2 °F 86% 30.06 in 1.2 mi WSW 6.9 mph - N/A Snow Light Snow
12:14 PM 15.8 °F 5.1 °F 12.2 °F 86% 30.06 in 1.5 mi WSW 8.1 mph - N/A Snow Light Snow
12:17 PM 15.8 °F 6.1 °F 12.2 °F 86% 30.06 in 2.0 mi Variable 6.9 mph - N/A Snow Light Snow
12:19 PM 15.8 °F 7.2 °F 12.2 °F 86% 30.06 in 2.5 mi West 5.8 mph - N/A Snow Light Snow
12:20 PM 15.8 °F 8.6 °F 12.2 °F 86% 30.06 in 3.0 mi West 4.6 mph - N/A Snow Light Snow
12:38 PM 17.6 °F 8.2 °F 12.2 °F 79% 30.04 in 10.0 mi Variable 6.9 mph - N/A Snow Light Snow
12:55 PM 17.6 °F 5.0 °F 9.3 °F 70% 30.04 in 10.0 mi SW 11.5 mph - 0.00 in Snow Light Snow
1:22 PM 17.6 °F 4.3 °F 10.4 °F 73% 30.02 in 10.0 mi SW 12.7 mph - N/A   Overcast
1:24 PM 17.6 °F 3.2 °F 10.4 °F 73% 30.02 in 10.0 mi SSW 15.0 mph - N/A   Overcast
1:27 PM 17.6 °F 3.7 °F 10.4 °F 73% 30.02 in 10.0 mi SSW 13.8 mph - N/A   Overcast
1:41 PM 17.6 °F 3.2 °F 10.4 °F 73% 30.01 in 10.0 mi SW 15.0 mph 21.9 mph N/A   Mostly Cloudy
1:44 PM 17.6 °F 3.7 °F 10.4 °F 73% 30.01 in 10.0 mi SSW 13.8 mph 21.9 mph N/A   Mostly Cloudy
1:55 PM 18.1 °F 5.0 °F 9.3 °F 68% 30.01 in 10.0 mi SSW 12.7 mph 21.9 mph 0.00 in   Mostly Cloudy
1:59 PM 17.6 °F 3.7 °F 8.6 °F 68% 30.01 in 10.0 mi SW 13.8 mph - N/A   Mostly Cloudy
2:03 PM 17.6 °F 2.7 °F 8.6 °F 68% 30.01 in 10.0 mi SW 16.1 mph 21.9 mph N/A   Mostly Cloudy
2:55 PM 18.7 °F 5.7 °F 10.0 °F 69% 29.99 in 10.0 mi SSW 12.7 mph - N/A   Clear
3:55 PM 18.1 °F 3.4 °F 10.0 °F 71% 29.99 in 10.0 mi South 16.1 mph - N/A   Partly Cloudy
4:55 PM 17.6 °F 1.7 °F 10.2 °F 73% 29.99 in 10.0 mi South 18.4 mph 24.2 mph N/A   Partly Cloudy
5:55 PM 16.9 °F 3.4 °F 9.7 °F 73% 29.99 in 10.0 mi South 12.7 mph - N/A   Overcast
6:41 PM 17.6 °F 5.7 °F 8.6 °F 68% 30.01 in 10.0 mi SW 10.4 mph - N/A Snow Light Snow
6:42 PM 17.6 °F 6.4 °F 8.6 °F 68% 30.01 in 10.0 mi SW 9.2 mph - N/A Snow Light Snow
6:43 PM 17.6 °F 7.3 °F 8.6 °F 68% 30.01 in 10.0 mi SW 8.1 mph - N/A Snow Light Snow
6:44 PM 17.6 °F 7.3 °F 8.6 °F 68% 30.01 in 10.0 mi SSW 8.1 mph - N/A Snow Light Snow
6:55 PM 17.6 °F 10.7 °F 10.0 °F 72% 30.01 in 10.0 mi West 4.6 mph - 0.00 in Snow Light Snow
7:05 PM 17.6 °F 10.7 °F 10.4 °F 73% 30.02 in 5.0 mi WSW 4.6 mph - N/A Snow Light Snow
7:21 PM 17.6 °F 12.3 °F 12.2 °F 79% 30.02 in 4.0 mi WSW 3.5 mph - N/A Snow Light Snow
7:35 PM 17.6 °F 10.7 °F 12.2 °F 79% 30.02 in 2.5 mi SW 4.6 mph - N/A Snow Light Snow
7:41 PM 17.6 °F 12.3 °F 14.0 °F 86% 30.02 in 2.5 mi SW 3.5 mph - N/A Snow Light Snow
7:55 PM 16.5 °F - 13.8 °F 89% 30.02 in 2.0 mi Calm Calm - 0.00 in Snow Light Snow
8:00 PM 15.8 °F - 14.0 °F 93% 30.02 in 1.8 mi Calm Calm - N/A Snow Light Snow
8:10 PM 15.8 °F - 14.0 °F 93% 30.02 in 1.8 mi Calm Calm - N/A Snow Light Snow
8:14 PM 15.8 °F - 14.0 °F 93% 30.02 in 2.0 mi Calm Calm - N/A Snow Light Snow
8:35 PM 15.8 °F 8.6 °F 14.0 °F 93% 30.02 in 2.5 mi South 4.6 mph - N/A Snow Light Snow
8:37 PM 15.8 °F 8.6 °F 14.0 °F 93% 30.02 in 2.5 mi South 4.6 mph - N/A Snow Light Snow
8:39 PM 15.8 °F 8.6 °F 14.0 °F 93% 30.02 in 2.5 mi South 4.6 mph - N/A Snow Light Snow
8:40 PM 15.8 °F 8.6 °F 14.0 °F 93% 30.02 in 3.0 mi South 4.6 mph - N/A Snow Light Snow
8:44 PM 15.8 °F 10.2 °F 14.0 °F 93% 30.02 in 3.0 mi South 3.5 mph - N/A Snow Light Snow
8:55 PM 16.7 °F 9.6 °F 15.1 °F 93% 30.02 in 3.0 mi South 4.6 mph - 0.00 in Snow Light Snow
8:58 PM 17.6 °F 10.7 °F 15.8 °F 93% 30.02 in 3.0 mi South 4.6 mph - N/A Snow Light Snow
9:01 PM 17.6 °F 10.7 °F 15.8 °F 93% 30.02 in 3.0 mi South 4.6 mph - N/A Snow Light Snow
9:37 PM 17.6 °F 10.7 °F 15.8 °F 93% 30.02 in 5.0 mi SSE 4.6 mph - N/A Snow Light Snow
9:55 PM 16.7 °F 8.3 °F 14.9 °F 93% 30.02 in 3.0 mi SE 5.8 mph - 0.00 in Snow Light Snow
9:57 PM 15.8 °F 7.2 °F 14.0 °F 93% 30.02 in 2.5 mi SE 5.8 mph - N/A Snow Light Snow
9:59 PM 15.8 °F 7.2 °F 14.0 °F 93% 30.02 in 3.0 mi SSE 5.8 mph - N/A Snow Light Snow
10:39 PM 15.8 °F 7.2 °F 14.0 °F 93% 30.01 in 5.0 mi SE 5.8 mph - N/A Snow Light Snow
10:47 PM 15.8 °F 5.1 °F 14.0 °F 93% 30.01 in 4.0 mi SSE 8.1 mph - N/A Snow Light Snow
10:52 PM 15.8 °F 6.1 °F 14.0 °F 93% 30.01 in 5.0 mi SSE 6.9 mph - N/A Snow Light Snow
10:55 PM 16.2 °F 6.5 °F 14.2 °F 92% 30.01 in 5.0 mi SSE 6.9 mph - 0.00 in Snow Light Snow
11:23 PM 15.8 °F 7.2 °F 14.0 °F 93% 30.01 in 8.0 mi SSE 5.8 mph - N/A Snow Light Snow
11:55 PM 15.1 °F 5.2 °F 12.9 °F 91% 30.01 in 8.0 mi SSE 6.9 mph - 0.00 in Snow Light Snow